Wind_Speed
9 10 9 9 5 3 1 3 2 1 5 5 7 9 8 12 11 12 10 5 6 4 2 3 4 9 9 10 11 11 14 11 11 11 11 10 11 15 16 15 16 17 18 21
4 10 9 6 10 4 4 2 5 9 2 10 13 7 9 12 10 10 13 5 9 2 3 5 2 4 5 9 11 14 13 11 10 10 14 14 15 14 17 20 21 19 19 19
3 11 10 5 3 2 3 7 1 3 4 9 10 11 6 17 5 12 8 8 6 1 3 7 8 10 9 11 11 16 17 17 12 11 14 14 15 17 19 21 20 21 19 20
3 4 3 5 1 6 16 20 13 14 12 9 11 19 25 20 15 7 11 9 8 7 10 12 11 13 14 14 16 19 18 20 19 18 18 18 16 15 16 19 22 22 21 23
2 3 8 7 6 6 12 16 15 16 16 14 23 23 17 22 19 15 11 10 11 14 17 17 15 17 18 19 22 22 22 23 23 23 24 23 22 18 19 21 20 22 23 24
3 2 3 3 14 18 5 6 10 14 14 13 16 7 3 14 15 15 13 14 17 18 20 23 23 22 24 24 26 28 28 26 25 28 27 25 26 23 23 24 21 22 24 25
2 2 5 6 8 17 4 1 6 17 16 16 6 4 9 9 10 12 15 17 18 20 22 21 21 23 26 27 27 29 29 29 30 29 30 27 26 31 29 26 27 25 24 25
1 2 3 13 7 4 3 3 15 20 16 11 10 9 9 12 16 21 17 18 18 21 22 23 20 20 24 24 22 24 25 26 30 28 30 32 33 33 34 30 32 30 26 23
3 2 5 12 6 11 13 17 16 16 17 16 15 15 16 17 16 11 17 21 22 19 25 28 26 27 32 31 33 35 33 32 28 25 32 32 36 34 35 34 33 32 26 22
1 5 9 17 12 17 13 15 15 15 14 14 16 16 16 17 22 23 24 23 19 23 29 32 31 35 38 39 40 42 45 47 47 42 33 30 36 38 38 36 34 30 25 23
4 5 3 7 4 5 14 14 12 11 12 11 12 12 14 16 17 17 18 22 27 29 32 36 40 40 36 38 39 41 43 46 48 49 49 42 33 39 39 35 31 28 23 22
2 3 4 2 12 11 11 11 11 11 11 10 13 16 19 18 19 21 24 25 26 25 32 35 33 37 39 39 38 37 37 38 40 43 43 44 37 35 38 35 33 30 20 21
4 7 10 15 11 9 10 10 10 11 13 15 17 15 18 20 20 24 25 23 22 24 25 29 34 37 38 38 38 38 40 40 37 36 34 35 39 31 33 30 27 21 19 21
8 4 9 11 10 10 8 7 7 9 12 13 14 17 20 21 24 25 22 21 23 24 27 30 33 37 37 38 37 36 36 37 38 40 36 34 37 34 29 24 22 20 18 15
5 10 6 9 10 10 7 8 11 12 14 17 17 18 21 23 25 25 22 23 24 24 25 28 32 36 34 35 34 33 34 37 37 35 36 34 33 35 32 25 22 23 21 22
6 5 10 10 9 10 9 12 12 13 15 15 17 20 21 20 22 23 23 22 23 24 24 28 31 34 30 29 29 26 26 19 10 21 26 32 30 29 29 29 28 30 34 35
9 9 7 7 7 8 9 10 10 11 14 15 17 19 18 19 22 24 24 21 22 23 23 27 29 32 27 22 21 17 13 8 3 12 24 28 26 25 29 30 33 39 39 37
6 5 6 6 6 6 8 9 11 14 12 14 16 16 17 19 22 25 26 22 22 25 24 25 25 28 25 19 14 11 7 1 6 13 17 20 25 28 32 36 40 42 37 33
6 9 8 6 6 7 12 15 15 15 11 13 15 15 16 17 19 22 22 21 23 28 27 25 22 24 24 20 15 13 11 10 13 17 20 24 26 29 32 34 35 35 32 29
7 7 9 10 13 16 18 17 16 12 12 13 14 14 16 17 17 20 22 20 21 24 22 21 21 19 21 19 16 14 16 16 17 17 18 20 22 24 27 29 31 29 27 25
10 11 11 14 16 17 18 18 16 13 13 15 15 15 16 16 16 18 22 22 26 23 21 18 16 16 17 18 16 15 15 16 17 18 18 20 22 23 25 26 25 23 22 21
14 14 14 17 18 19 18 18 18 18 18 15 16 15 15 15 14 15 17 21 23 20 22 18 13 14 14 14 16 13 15 16 17 16 17 18 21 22 23 23 23 22 22 21
14 13 13 16 18 21 20 19 19 19 20 17 16 15 12 15 15 16 16 22 22 18 18 16 11 11 12 12 12 12 13 11 12 14 18 19 21 21 21 21 21 20 20 19
14 11 15 17 17 17 17 16 18 23 26 24 16 16 11 14 16 14 10 18 19 15 15 14 9 9 8 10 10 11 11 11 12 14 15 16 16 15 16 16 16 17 16 15
13 14 14 15 16 17 17 18 20 21 22 24 10 7 6 12 15 14 14 17 18 13 13 11 8 8 9 8 7 7 8 8 9 8 9 9 10 11 11 11 12 13 13 12
11 12 13 15 18 19 19 20 21 19 21 9 5 6 11 16 17 14 11 12 14 12 10 8 6 6 6 6 6 6 6 5 4 5 4 5 6 7 8 9 9 10 11 10
9 12 14 13 13 16 18 18 18 13 9 12 11 13 13 13 12 12 11 10 11 10 9 5 3 4 4 5 5 5 2 1 2 2 2 2 4 5 6 7 8 8 8 8
Wind_Direction
334 326 4 325 2 4 28 138 88 216 184 187 167 200 208 195 179 184 167 169 188 213 43 129 359 4 15 345 357 357 342 353 332 315 298 315 315 307 303 305 303 291 273 266
340 24 357 304 302 338 251 277 148 125 126 203 202 217 204 218 242 146 148 151 142 167 19 88 348 332 304 316 343 330 319 331 329 331 322 320 291 294 298 303 307 301 289 275
356 350 332 350 261 224 283 186 76 21 358 150 190 208 230 219 161 105 105 90 129 3 6 334 322 326 311 325 328 327 324 329 318 314 311 310 303 303 296 290 296 300 296 288
289 355 39 282 309 359 63 36 97 99 82 89 94 88 75 81 90 86 88 55 37 3 322 317 319 322 305 288 304 311 308 307 311 310 304 307 311 297 294 290 284 287 290 287
67 325 280 352 24 37 80 48 41 60 53 70 81 72 36 40 45 44 30 3 343 334 335 337 329 322 314 302 298 293 290 290 289 299 302 297 298 296 296 293 290 286 285 283
46 358 315 28 331 347 101 66 46 51 53 63 61 57 326 17 9 6 6 358 346 333 322 314 313 314 309 303 303 293 288 284 285 284 285 291 289 288 294 294 295 295 280 278
149 213 299 345 331 318 45 160 19 68 59 55 63 75 14 2 349 329 327 326 321 317 318 316 309 307 303 301 301 300 299 294 286 284 282 279 275 279 288 294 296 297 289 278
141 205 292 337 360 61 71 36 44 43 39 38 30 14 3 344 333 328 323 316 317 321 313 308 307 304 295 297 300 292 285 291 285 284 277 276 272 276 277 284 291 296 291 283
130 198 232 304 324 93 81 53 39 32 31 27 19 4 352 340 331 326 320 316 308 309 310 303 303 296 292 288 293 295 288 282 282 283 275 275 269 265 268 277 286 292 286 275
3 37 17 9 26 52 45 55 46 33 21 11 3 352 344 335 328 323 319 321 325 311 307 305 308 300 299 298 295 291 287 282 277 273 272 269 262 261 264 270 279 287 282 270
112 89 193 187 61 68 55 39 30 11 5 359 350 3 354 346 343 339 329 321 317 310 306 302 301 302 303 304 302 296 287 278 273 270 266 262 259 251 259 264 273 284 273 265
201 166 97 92 72 60 64 46 25 13 10 21 359 348 338 337 334 329 323 315 307 302 300 302 310 311 312 312 307 297 285 278 274 270 264 261 255 247 249 255 266 279 260 261
95 47 63 76 62 67 62 38 21 14 11 4 355 360 343 337 335 327 325 319 312 310 315 318 319 317 316 313 304 295 286 276 266 260 256 248 243 239 242 249 260 278 256 255
52 55 57 57 62 51 46 35 20 6 358 357 356 340 341 341 334 335 333 329 325 326 323 323 324 324 324 316 308 300 293 284 272 257 249 243 242 233 236 239 256 272 247 229
331 45 57 65 40 43 26 2 10 9 357 356 345 337 337 339 333 336 334 331 328 328 329 329 331 334 327 316 316 310 302 294 281 261 244 234 233 231 232 234 242 242 213 185
61 77 51 48 33 21 1 357 7 357 354 347 341 338 339 336 334 336 334 336 340 337 338 339 340 339 335 326 323 313 314 318 276 236 223 221 222 223 225 221 219 207 185 177
42 39 31 35 19 13 7 359 360 342 337 338 334 339 342 340 338 344 344 339 342 340 344 349 347 347 353 341 333 332 333 327 238 204 206 212 211 212 208 203 192 183 177 171
19 3 14 11 2 14 15 351 329 321 332 330 330 339 340 340 337 341 345 341 339 344 351 355 357 356 4 5 1 359 3 23 185 187 190 189 187 188 186 182 179 175 167 163
348 355 352 330 310 323 329 325 321 327 323 326 334 337 340 342 342 342 344 347 343 347 352 352 3 7 9 15 29 46 69 100 127 139 149 154 157 162 164 166 164 161 156 153
316 310 322 325 322 328 333 332 327 317 321 317 328 331 334 340 342 347 344 347 347 344 343 348 357 14 15 23 37 52 66 84 98 108 120 130 136 142 147 148 148 146 146 149
320 323 324 320 317 319 323 332 328 325 319 315 314 318 324 332 336 339 343 342 345 346 347 352 360 13 19 17 36 54 70 83 90 94 103 115 125 130 136 141 139 137 139 145
313 308 313 310 312 314 316 317 315 309 309 315 315 311 314 326 333 338 338 342 343 349 359 3 15 18 23 24 32 54 68 73 78 87 96 104 111 116 121 124 127 132 136 138
342 333 326 320 323 320 315 310 311 311 310 301 302 304 314 326 326 326 326 339 345 352 359 9 20 24 29 34 40 48 62 71 81 83 98 101 106 113 119 123 127 133 137 138
330 339 331 330 331 338 329 332 326 323 310 305 284 289 284 318 320 310 321 337 339 346 357 10 14 20 30 37 45 53 62 76 82 88 96 100 104 113 120 126 130 133 135 136
334 339 338 342 344 347 339 334 328 330 335 325 265 222 286 323 320 315 329 339 332 343 349 358 18 26 40 46 49 57 64 69 75 86 96 104 119 126 132 138 143 146 147 147
339 347 344 338 339 341 339 333 323 322 330 330 347 330 323 324 324 306 309 317 325 340 341 346 8 24 33 45 50 55 65 74 79 89 99 125 145 154 154 152 157 164 168 166
319 323 336 354 358 353 2 8 21 26 1 6 350 334 333 339 344 328 300 302 320 330 336 339 358 10 19 23 14 6 360 43 74 105 117 135 147 154 161 166 168 166 164 164
Height
1370 1356 1350 1355 1355 1355 1358 1360 1365 1366 1362 1364 1367 1369 1369 1373 1371 1373 1379 1381 1385 1395 1389 1386 1390 1390 1389 1392 1390 1390 1391 1386 1388 1388 1391 1390 1390 1391 1390 1391 1392 1393 1393 1393
1372 1359 1359 1363 1355 1347 1352 1355 1353 1360 1365 1359 1363 1369 1372 1373 1373 1371 1378 1384 1388 1393 1390 1388 1389 1390 1393 1391 1390 1392 1392 1387 1385 1386 1387 1387 1388 1388 1388 1389 1389 1389 1391 1391
1375 1368 1369 1377 1356 1348 1349 1348 1357 1358 1354 1359 1367 1368 1371 1369 1374 1376 1380 1385 1390 1391 1388 1390 1388 1386 1386 1385 1389 1390 1390 1385 1386 1385 1385 1384 1382 1383 1383 1383 1386 1385 1385 1386
1388 1378 1413 1362 1346 1347 1353 1358 1356 1356 1358 1364 1368 1371 1372 1375 1378 1381 1384 1388 1388 1387 1388 1389 1387 1385 1385 1385 1384 1385 1385 1386 1385 1385 1384 1380 1377 1379 1379 1378 1378 1380 1380 1379
1403 1384 1371 1359 1359 1361 1364 1374 1367 1364 1367 1371 1371 1373 1378 1380 1381 1384 1386 1386 1386 1387 1386 1384 1382 1383 1381 1380 1381 1382 1382 1382 1380 1377 1379 1376 1377 1375 1374 1376 1377 1373 1373 1372
1398 1398 1389 1380 1369 1363 1365 1383 1378 1372 1378 1379 1377 1386 1386 1383 1384 1385 1384 1384 1385 1385 1383 1380 1379 1378 1378 1377 1376 1378 1376 1374 1373 1373 1371 1371 1371 1369 1368 1373 1369 1367 1368 1369
1407 1408 1389 1381 1375 1368 1374 1394 1381 1380 1381 1383 1386 1388 1387 1386 1386 1386 1384 1384 1384 1381 1379 1378 1379 1377 1375 1371 1370 1371 1367 1365 1365 1363 1361 1364 1366 1366 1361 1362 1363 1362 1361 1363
1393 1398 1396 1382 1377 1381 1391 1390 1384 1382 1384 1386 1387 1388 1388 1387 1386 1385 1383 1382 1381 1378 1377 1376 1375 1374 1370 1366 1363 1359 1359 1358 1356 1353 1355 1355 1356 1356 1356 1354 1356 1353 1354 1353
1397 1399 1392 1391 1390 1386 1386 1386 1386 1387 1389 1389 1388 1388 1387 1386 1385 1383 1380 1378 1377 1375 1374 1372 1371 1369 1365 1361 1357 1354 1351 1350 1348 1345 1347 1348 1348 1347 1349 1347 1346 1347 1346 1345
1391 1395 1396 1393 1392 1388 1390 1391 1391 1390 1390 1389 1388 1387 1386 1384 1381 1379 1376 1373 1372 1371 1369 1366 1365 1362 1358 1352 1349 1345 1340 1336 1336 1336 1337 1337 1338 1338 1339 1339 1338 1338 1338 1338
1396 1398 1396 1394 1390 1391 1391 1391 1391 1391 1391 1391 1389 1387 1385 1383 1380 1376 1373 1370 1368 1366 1362 1358 1355 1350 1345 1340 1335 1329 1325 1321 1321 1321 1323 1324 1326 1329 1329 1328 1328 1329 1330 1331
1400 1392 1391 1392 1392 1392 1392 1393 1393 1392 1390 1389 1386 1384 1383 1381 1378 1375 1372 1369 1365 1362 1358 1352 1345 1338 1332 1327 1322 1318 1313 1309 1306 1304 1306 1306 1311 1314 1316 1318 1318 1320 1322 1324
1393 1392 1392 1392 1393 1392 1392 1392 1392 1391 1389 1387 1385 1382 1380 1377 1374 1370 1366 1362 1358 1354 1349 1344 1337 1329 1323 1316 1310 1304 1298 1295 1293 1292 1294 1294 1295 1300 1303 1306 1310 1313 1317 1319
1391 1392 1392 1392 1393 1392 1391 1391 1390 1389 1389 1386 1383 1379 1377 1373 1369 1365 1361 1357 1353 1348 1343 1337 1330 1321 1312 1304 1296 1289 1282 1278 1275 1275 1278 1281 1283 1289 1294 1297 1303 1307 1312 1313
1391 1392 1393 1392 1393 1392 1390 1389 1388 1387 1385 1382 1380 1378 1374 1370 1366 1362 1357 1353 1349 1344 1339 1332 1324 1314 1304 1294 1284 1276 1269 1261 1256 1258 1263 1270 1275 1280 1285 1290 1296 1303 1307 1311
1391 1393 1392 1392 1392 1391 1388 1387 1386 1385 1383 1381 1378 1375 1372 1368 1364 1359 1355 1351 1346 1340 1335 1327 1319 1309 1298 1286 1277 1268 1260 1252 1244 1247 1255 1262 1268 1273 1278 1284 1290 1297 1301 1306
1392 1392 1392 1391 1391 1390 1387 1386 1385 1383 1381 1379 1376 1373 1370 1366 1362 1357 1352 1348 1344 1339 1333 1325 1317 1307 1295 1285 1275 1268 1261 1255 1252 1252 1256 1260 1265 1269 1274 1279 1285 1291 1298 1304
1393 1392 1391 1390 1390 1388 1387 1385 1383 1381 1380 1378 1375 1371 1368 1364 1360 1355 1350 1345 1341 1336 1331 1324 1316 1307 1298 1288 1280 1272 1266 1262 1260 1259 1260 1262 1266 1270 1274 1279 1285 1291 1297 1302
1393 1392 1391 1389 1388 1387 1386 1384 1381 1379 1377 1375 1372 1369 1366 1363 1359 1354 1349 1344 1339 1333 1328 1323 1317 1310 1302 1294 1287 1280 1275 1272 1269 1268 1267 1268 1270 1274 1277 1281 1287 1293 1298 1303
1391 1390 1389 1388 1386 1385 1383 1381 1379 1377 1375 1372 1369 1367 1364 1361 1358 1353 1349 1344 1340 1335 1329 1324 1318 1313 1307 1301 1295 1290 1286 1282 1279 1277 1276 1277 1278 1280 1283 1287 1292 1297 1302 1308
1389 1388 1387 1386 1384 1383 1381 1379 1376 1374 1372 1370 1367 1364 1361 1359 1356 1352 1347 1343 1339 1334 1329 1324 1320 1316 1311 1307 1302 1297 1294 1291 1288 1287 1286 1286 1287 1289 1292 1296 1300 1304 1309 1315
1387 1385 1384 1383 1381 1379 1377 1375 1373 1371 1369 1367 1364 1362 1359 1356 1354 1351 1348 1344 1338 1333 1328 1324 1321 1318 1315 1311 1307 1304 1302 1299 1298 1297 1296 1295 1295 1297 1300 1303 1307 1312 1316 1321
1385 1383 1382 1380 1378 1375 1373 1372 1369 1367 1365 1363 1361 1359 1357 1355 1352 1349 1346 1343 1338 1334 1330 1326 1323 1321 1318 1315 1313 1311 1309 1307 1306 1305 1304 1304 1304 1306 1309 1312 1315 1319 1323 1326
1383 1381 1380 1377 1375 1371 1369 1367 1365 1363 1360 1357 1356 1355 1353 1351 1349 1347 1345 1342 1338 1335 1332 1329 1326 1324 1321 1319 1317 1315 1314 1313 1312 1311 1311 1311 1312 1314 1317 1319 1322 1324 1327 1330
1380 1378 1377 1374 1372 1370 1367 1364 1361 1358 1355 1352 1348 1349 1349 1348 1347 1345 1343 1341 1338 1335 1332 1330 1328 1326 1324 1323 1321 1320 1319 1318 1318 1318 1318 1318 1319 1321 1322 1324 1326 1328 1330 1333
1377 1376 1374 1373 1370 1367 1364 1360 1357 1355 1352 1351 1350 1348 1348 1345 1343 1341 1340 1339 1338 1335 1333 1331 1329 1328 1327 1325 1325 1324 1322 1322 1321 1321 1322 1323 1323 1325 1325 1327 1328 1329 1331 1333
1374 1373 1372 1370 1368 1366 1363 1360 1356 1354 1353 1351 1349 1348 1345 1342 1340 1338 1337 1337 1336 1335 1333 1332 1331 1329 1328 1327 1326 1325 1324 1324 1324 1324 1324 1324 1324 1325 1326 1328 1329 1330 1332 1334